QPF
0.00 0.00 0.00 0.00 0.00 0.00 0.00 0.00 0.00 0.00 0.00 0.00 0.00 0.00 0.00 0.00 0.00 0.00 0.00 0.00 0.00 0.00 0.00 0.00 0.00 0.00 0.00 0.00 0.00 0.00 0.00 0.00 0.00 0.01 0.00 0.00 0.01 0.01 0.02 0.01 0.02 0.02 0.01
0.00 0.00 0.00 0.00 0.00 0.00 0.00 0.00 0.00 0.00 0.00 0.00 0.00 0.00 0.00 0.00 0.00 0.00 0.00 0.00 0.00 0.00 0.00 0.00 0.00 0.00 0.00 0.00 0.00 0.00 0.00 0.00 0.00 0.01 0.01 0.01 0.01 0.01 0.02 0.01 0.02 0.02 0.01
0.00 0.00 0.00 0.00 0.00 0.00 0.00 0.00 0.00 0.00 0.00 0.00 0.00 0.00 0.00 0.00 0.00 0.00 0.00 0.00 0.00 0.00 0.00 0.00 0.00 0.00 0.00 0.00 0.00 0.00 0.00 0.00 0.00 0.01 0.01 0.01 0.01 0.01 0.01 0.01 0.01 0.01 0.01
0.00 0.00 0.00 0.00 0.00 0.00 0.00 0.00 0.00 0.00 0.00 0.00 0.00 0.00 0.00 0.00 0.00 0.00 0.00 0.00 0.00 0.00 0.00 0.00 0.00 0.00 0.00 0.00 0.00 0.00 0.00 0.00 0.00 0.00 0.02 0.02 0.01 0.01 0.01 0.01 0.01 0.01 0.01
0.00 0.00 0.00 0.00 0.00 0.00 0.00 0.00 0.00 0.00 0.00 0.00 0.00 0.00 0.00 0.00 0.00 0.00 0.00 0.00 0.00 0.00 0.00 0.00 0.00 0.00 0.00 0.00 0.00 0.00 0.00 0.00 0.00 0.01 0.01 0.02 0.03 0.01 0.01 0.02 0.02 0.01 0.01
0.00 0.00 0.00 0.00 0.00 0.00 0.00 0.00 0.00 0.00 0.00 0.00 0.00 0.00 0.00 0.00 0.00 0.00 0.00 0.00 0.00 0.00 0.00 0.00 0.00 0.00 0.00 0.00 0.00 0.00 0.00 0.00 0.00 0.00 0.00 0.01 0.03 0.01 0.01 0.02 0.02 0.02 0.02
0.00 0.00 0.00 0.00 0.00 0.00 0.00 0.00 0.00 0.00 0.00 0.00 0.00 0.00 0.00 0.00 0.00 0.00 0.00 0.00 0.00 0.00 0.00 0.00 0.00 0.00 0.00 0.00 0.00 0.00 0.00 0.00 0.00 0.01 0.00 0.01 0.02 0.01 0.02 0.04 0.05 0.04 0.02
0.00 0.00 0.00 0.00 0.00 0.00 0.00 0.00 0.00 0.00 0.00 0.00 0.00 0.00 0.00 0.00 0.00 0.00 0.00 0.00 0.00 0.00 0.00 0.00 0.00 0.00 0.00 0.00 0.00 0.00 0.00 0.00 0.00 0.00 0.00 0.01 0.02 0.01 0.03 0.06 0.06 0.06 0.05
0.00 0.00 0.00 0.00 0.00 0.00 0.00 0.00 0.00 0.00 0.00 0.00 0.00 0.00 0.00 0.00 0.00 0.00 0.00 0.00 0.00 0.00 0.00 0.00 0.00 0.00 0.00 0.00 0.00 0.00 0.00 0.00 0.00 0.01 0.00 0.01 0.01 0.01 0.03 0.07 0.07 0.06 0.06
0.00 0.00 0.00 0.01 0.01 0.01 0.01 0.01 0.00 0.00 0.00 0.00 0.00 0.00 0.00 0.00 0.00 0.00 0.00 0.00 0.00 0.00 0.00 0.00 0.00 0.00 0.00 0.00 0.01 0.00 0.00 0.00 0.00 0.00 0.01 0.00 0.01 0.01 0.03 0.07 0.08 0.07 0.06
0.00 0.00 0.00 0.01 0.01 0.01 0.01 0.01 0.01 0.01 0.01 0.01 0.01 0.01 0.01 0.01 0.01 0.01 0.01 0.01 0.01 0.02 0.02 0.02 0.03 0.03 0.03 0.02 0.01 0.02 0.01 0.01 0.00 0.01 0.01 0.00 0.00 0.01 0.04 0.08 0.08 0.07 0.06
0.00 0.00 0.01 0.01 0.01 0.01 0.01 0.02 0.02 0.02 0.02 0.02 0.03 0.02 0.03 0.03 0.03 0.02 0.02 0.02 0.04 0.05 0.05 0.05 0.07 0.07 0.06 0.05 0.06 0.06 0.03 0.03 0.03 0.02 0.01 0.01 0.01 0.01 0.03 0.05 0.06 0.07 0.07
0.00 0.00 0.01 0.01 0.02 0.02 0.02 0.02 0.02 0.03 0.04 0.04 0.04 0.04 0.04 0.04 0.04 0.04 0.04 0.05 0.06 0.07 0.09 0.11 0.13 0.10 0.10 0.12 0.14 0.11 0.06 0.05 0.04 0.03 0.03 0.02 0.02 0.02 0.03 0.04 0.05 0.07 0.08
0.00 0.01 0.01 0.01 0.02 0.02 0.02 0.02 0.02 0.02 0.03 0.04 0.04 0.05 0.06 0.06 0.07 0.06 0.06 0.06 0.07 0.09 0.12 0.14 0.15 0.14 0.16 0.17 0.17 0.13 0.09 0.06 0.05 0.05 0.07 0.04 0.04 0.04 0.04 0.05 0.05 0.06 0.08
0.01 0.02 0.02 0.02 0.03 0.03 0.03 0.02 0.02 0.02 0.04 0.05 0.06 0.07 0.08 0.08 0.07 0.08 0.09 0.11 0.11 0.12 0.13 0.15 0.16 0.17 0.17 0.17 0.16 0.12 0.09 0.07 0.06 0.07 0.07 0.06 0.05 0.05 0.04 0.05 0.06 0.07 0.08
0.03 0.06 0.06 0.07 0.07 0.06 0.05 0.05 0.07 0.07 0.09 0.11 0.10 0.10 0.12 0.12 0.14 0.15 0.15 0.16 0.15 0.14 0.14 0.16 0.17 0.20 0.18 0.19 0.15 0.13 0.12 0.10 0.08 0.08 0.07 0.08 0.06 0.05 0.05 0.06 0.08 0.07 0.09
0.05 0.08 0.09 0.09 0.08 0.08 0.08 0.09 0.11 0.11 0.14 0.18 0.17 0.17 0.16 0.15 0.17 0.17 0.14 0.15 0.16 0.14 0.14 0.15 0.18 0.21 0.17 0.16 0.16 0.18 0.17 0.13 0.09 0.09 0.09 0.09 0.06 0.04 0.04 0.05 0.06 0.08 0.10
0.04 0.06 0.09 0.10 0.09 0.08 0.08 0.09 0.11 0.13 0.17 0.18 0.19 0.22 0.23 0.23 0.22 0.22 0.19 0.19 0.18 0.17 0.14 0.15 0.16 0.16 0.16 0.17 0.17 0.16 0.15 0.12 0.06 0.07 0.06 0.05 0.05 0.04 0.04 0.04 0.05 0.06 0.08
0.05 0.07 0.09 0.10 0.10 0.11 0.13 0.17 0.22 0.26 0.27 0.30 0.31 0.29 0.26 0.23 0.21 0.21 0.21 0.21 0.19 0.17 0.13 0.11 0.12 0.12 0.13 0.13 0.12 0.12 0.10 0.06 0.06 0.04 0.03 0.02 0.03 0.03 0.04 0.03 0.02 0.03 0.05
0.06 0.07 0.06 0.07 0.09 0.11 0.14 0.17 0.23 0.28 0.31 0.34 0.35 0.35 0.32 0.27 0.24 0.21 0.20 0.21 0.20 0.17 0.13 0.10 0.10 0.09 0.09 0.09 0.06 0.06 0.05 0.04 0.03 0.03 0.01 0.01 0.01 0.02 0.02 0.02 0.02 0.02 0.02
0.05 0.05 0.04 0.06 0.08 0.12 0.17 0.20 0.24 0.30 0.30 0.28 0.28 0.29 0.31 0.31 0.29 0.24 0.19 0.20 0.21 0.19 0.16 0.14 0.10 0.07 0.06 0.06 0.05 0.04 0.04 0.02 0.02 0.02 0.01 0.01 0.00 0.01 0.01 0.02 0.03 0.03 0.03
0.04 0.03 0.03 0.03 0.04 0.07 0.10 0.14 0.15 0.17 0.17 0.16 0.18 0.21 0.21 0.22 0.22 0.20 0.16 0.16 0.15 0.14 0.12 0.10 0.08 0.06 0.05 0.04 0.03 0.03 0.02 0.01 0.01 0.01 0.01 0.01 0.00 0.01 0.01 0.01 0.02 0.03 0.02
0.02 0.02 0.02 0.02 0.03 0.03 0.04 0.06 0.08 0.09 0.10 0.12 0.13 0.15 0.16 0.16 0.16 0.16 0.14 0.13 0.12 0.10 0.08 0.07 0.07 0.06 0.05 0.04 0.03 0.02 0.01 0.01 0.00 0.00 0.00 0.00 0.00 0.01 0.01 0.02 0.02 0.02 0.01
0.01 0.01 0.01 0.01 0.01 0.01 0.01 0.02 0.03 0.04 0.05 0.07 0.08 0.10 0.11 0.14 0.14 0.13 0.14 0.13 0.12 0.10 0.09 0.08 0.07 0.06 0.05 0.04 0.04 0.03 0.01 0.01 0.00 0.00 0.00 0.00 0.00 0.00 0.01 0.01 0.01 0.01 0.01
0.01 0.01 0.00 0.01 0.01 0.01 0.00 0.01 0.02 0.02 0.03 0.04 0.04 0.05 0.07 0.09 0.12 0.14 0.14 0.13 0.13 0.12 0.10 0.09 0.08 0.06 0.05 0.05 0.04 0.03 0.02 0.02 0.01 0.00 0.00 0.00 0.00 0.00 0.01 0.01 0.01 0.01 0.01
0.01 0.01 0.00 0.00 0.01 0.01 0.00 0.00 0.01 0.01 0.01 0.02 0.02 0.03 0.05 0.05 0.06 0.08 0.09 0.08 0.08 0.09 0.09 0.08 0.07 0.06 0.06 0.06 0.05 0.04 0.03 0.02 0.01 0.01 0.00 0.00 0.00 0.00 0.00 0.00 0.00 0.01 0.01
MSLP
1009.46 1009.70 1010.13 1010.69 1011.28 1011.80 1012.19 1012.41 1012.48 1012.45 1012.42 1012.47 1012.65 1012.97 1013.41 1013.92 1014.42 1014.85 1015.16 1015.34 1015.42 1015.44 1015.46 1015.50 1015.59 1015.72 1015.87 1016.00 1016.09 1016.13 1016.13 1016.12 1016.12 1016.16 1016.25 1016.40 1016.58 1016.78 1016.96 1017.11 1017.21 1017.29 1017.36
1009.28 1009.59 1010.08 1010.70 1011.33 1011.89 1012.30 1012.53 1012.60 1012.57 1012.54 1012.58 1012.76 1013.09 1013.54 1014.05 1014.54 1014.94 1015.23 1015.39 1015.45 1015.47 1015.50 1015.57 1015.70 1015.87 1016.06 1016.23 1016.34 1016.38 1016.37 1016.33 1016.31 1016.33 1016.42 1016.57 1016.77 1017.00 1017.20 1017.37 1017.50 1017.58 1017.65
1009.05 1009.42 1009.96 1010.63 1011.32 1011.92 1012.37 1012.64 1012.75 1012.75 1012.74 1012.80 1012.98 1013.30 1013.73 1014.20 1014.64 1015.00 1015.24 1015.36 1015.41 1015.43 1015.49 1015.61 1015.79 1016.03 1016.27 1016.47 1016.59 1016.63 1016.60 1016.53 1016.48 1016.47 1016.54 1016.69 1016.90 1017.14 1017.38 1017.57 1017.72 1017.82 1017.89
1008.83 1009.23 1009.82 1010.53 1011.26 1011.92 1012.42 1012.75 1012.92 1012.97 1013.01 1013.09 1013.28 1013.58 1013.96 1014.37 1014.75 1015.04 1015.21 1015.30 1015.33 1015.37 1015.47 1015.64 1015.89 1016.19 1016.48 1016.72 1016.85 1016.88 1016.82 1016.72 1016.62 1016.58 1016.63 1016.77 1016.99 1017.24 1017.50 1017.72 1017.90 1018.02 1018.12
1008.67 1009.10 1009.71 1010.44 1011.20 1011.90 1012.46 1012.85 1013.08 1013.20 1013.28 1013.40 1013.59 1013.87 1014.21 1014.55 1014.85 1015.07 1015.19 1015.24 1015.27 1015.33 1015.46 1015.70 1016.01 1016.36 1016.69 1016.95 1017.08 1017.09 1017.00 1016.86 1016.73 1016.66 1016.69 1016.82 1017.03 1017.30 1017.58 1017.83 1018.04 1018.20 1018.33
1008.63 1009.06 1009.66 1010.39 1011.16 1011.88 1012.47 1012.91 1013.19 1013.37 1013.50 1013.65 1013.85 1014.11 1014.40 1014.69 1014.92 1015.08 1015.16 1015.19 1015.23 1015.31 1015.49 1015.77 1016.13 1016.51 1016.86 1017.12 1017.24 1017.22 1017.10 1016.93 1016.77 1016.68 1016.69 1016.82 1017.04 1017.32 1017.62 1017.90 1018.14 1018.34 1018.50
1008.71 1009.11 1009.70 1010.41 1011.15 1011.86 1012.46 1012.91 1013.23 1013.44 1013.61 1013.78 1013.99 1014.23 1014.49 1014.74 1014.93 1015.05 1015.12 1015.15 1015.20 1015.32 1015.53 1015.84 1016.22 1016.61 1016.94 1017.17 1017.26 1017.22 1017.07 1016.87 1016.70 1016.60 1016.62 1016.76 1017.00 1017.30 1017.62 1017.92 1018.18 1018.41 1018.60
1008.86 1009.25 1009.80 1010.46 1011.17 1011.83 1012.40 1012.85 1013.17 1013.40 1013.58 1013.76 1013.96 1014.20 1014.44 1014.66 1014.83 1014.95 1015.02 1015.07 1015.15 1015.29 1015.53 1015.85 1016.22 1016.58 1016.88 1017.07 1017.11 1017.03 1016.86 1016.66 1016.49 1016.42 1016.47 1016.63 1016.90 1017.22 1017.55 1017.87 1018.14 1018.39 1018.60
1009.05 1009.42 1009.93 1010.55 1011.19 1011.80 1012.32 1012.72 1013.01 1013.23 1013.40 1013.57 1013.77 1013.99 1014.22 1014.43 1014.61 1014.73 1014.82 1014.91 1015.02 1015.19 1015.43 1015.74 1016.08 1016.40 1016.64 1016.77 1016.77 1016.65 1016.47 1016.28 1016.14 1016.11 1016.21 1016.42 1016.72 1017.07 1017.42 1017.74 1018.02 1018.26 1018.48
1009.22 1009.60 1010.08 1010.65 1011.23 1011.76 1012.21 1012.55 1012.79 1012.97 1013.11 1013.26 1013.44 1013.64 1013.86 1014.07 1014.25 1014.40 1014.52 1014.63 1014.78 1014.97 1015.21 1015.50 1015.79 1016.05 1016.22 1016.29 1016.24 1016.10 1015.93 1015.76 1015.68 1015.71 1015.86 1016.13 1016.48 1016.86 1017.22 1017.54 1017.81 1018.03 1018.24
1009.36 1009.76 1010.24 1010.76 1011.28 1011.74 1012.11 1012.38 1012.56 1012.68 1012.78 1012.89 1013.03 1013.20 1013.40 1013.60 1013.78 1013.94 1014.09 1014.24 1014.40 1014.60 1014.84 1015.10 1015.35 1015.55 1015.66 1015.67 1015.59 1015.44 1015.28 1015.16 1015.13 1015.22 1015.45 1015.78 1016.17 1016.58 1016.95 1017.27 1017.52 1017.72 1017.90
1009.50 1009.94 1010.42 1010.91 1011.37 1011.76 1012.05 1012.24 1012.36 1012.41 1012.46 1012.51 1012.61 1012.74 1012.89 1013.07 1013.24 1013.40 1013.56 1013.72 1013.90 1014.11 1014.34 1014.57 1014.78 1014.94 1015.01 1014.99 1014.89 1014.75 1014.61 1014.53 1014.55 1014.71 1014.99 1015.37 1015.80 1016.23 1016.62 1016.93 1017.17 1017.35 1017.50
1009.69 1010.16 1010.65 1011.11 1011.52 1011.84 1012.06 1012.18 1012.22 1012.22 1012.20 1012.20 1012.22 1012.29 1012.39 1012.51 1012.65 1012.79 1012.94 1013.10 1013.29 1013.50 1013.72 1013.95 1014.14 1014.28 1014.33 1014.31 1014.21 1014.09 1013.97 1013.93 1013.99 1014.19 1014.50 1014.91 1015.37 1015.82 1016.21 1016.53 1016.76 1016.93 1017.06
1009.98 1010.47 1010.95 1011.38 1011.73 1011.98 1012.14 1012.20 1012.18 1012.11 1012.03 1011.95 1011.91 1011.90 1011.92 1011.97 1012.05 1012.15 1012.26 1012.41 1012.60 1012.81 1013.04 1013.27 1013.47 1013.62 1013.69 1013.68 1013.61 1013.51 1013.43 1013.40 1013.48 1013.69 1014.01 1014.42 1014.87 1015.33 1015.73 1016.05 1016.29 1016.46 1016.59
1010.41 1010.89 1011.33 1011.71 1012.00 1012.18 1012.27 1012.27 1012.20 1012.07 1011.93 1011.78 1011.65 1011.55 1011.49 1011.45 1011.45 1011.48 1011.56 1011.68 1011.86 1012.08 1012.33 1012.58 1012.82 1013.00 1013.12 1013.15 1013.12 1013.05 1012.98 1012.96 1013.04 1013.22 1013.51 1013.89 1014.32 1014.75 1015.15 1015.48 1015.73 1015.92 1016.07
1010.97 1011.41 1011.78 1012.08 1012.29 1012.40 1012.43 1012.37 1012.24 1012.06 1011.86 1011.64 1011.43 1011.24 1011.07 1010.94 1010.85 1010.81 1010.84 1010.93 1011.10 1011.33 1011.61 1011.91 1012.20 1012.44 1012.61 1012.71 1012.72 1012.69 1012.63 1012.61 1012.64 1012.77 1013.00 1013.32 1013.69 1014.09 1014.47 1014.81 1015.09 1015.31 1015.49
1011.62 1011.96 1012.24 1012.44 1012.55 1012.59 1012.55 1012.43 1012.26 1012.04 1011.78 1011.49 1011.21 1010.93 1010.67 1010.44 1010.27 1010.16 1010.13 1010.20 1010.36 1010.60 1010.91 1011.26 1011.61 1011.93 1012.17 1012.33 1012.40 1012.40 1012.35 1012.30 1012.29 1012.35 1012.50 1012.73 1013.03 1013.37 1013.73 1014.06 1014.36 1014.62 1014.84
1012.28 1012.50 1012.65 1012.74 1012.75 1012.71 1012.60 1012.44 1012.22 1011.96 1011.65 1011.31 1010.96 1010.60 1010.26 1009.96 1009.71 1009.54 1009.48 1009.52 1009.68 1009.93 1010.27 1010.66 1011.07 1011.45 1011.76 1011.98 1012.10 1012.14 1012.10 1012.04 1011.98 1011.96 1012.02 1012.16 1012.38 1012.65 1012.96 1013.28 1013.59 1013.87 1014.12
1012.83 1012.92 1012.95 1012.93 1012.85 1012.73 1012.57 1012.37 1012.12 1011.83 1011.48 1011.10 1010.70 1010.28 1009.88 1009.52 1009.22 1009.02 1008.92 1008.95 1009.10 1009.36 1009.72 1010.13 1010.57 1011.00 1011.36 1011.63 1011.81 1011.87 1011.86 1011.78 1011.69 1011.62 1011.60 1011.66 1011.79 1011.99 1012.25 1012.53 1012.82 1013.10 1013.37
1013.22 1013.19 1013.11 1012.99 1012.84 1012.66 1012.47 1012.24 1011.97 1011.66 1011.30 1010.89 1010.45 1010.00 1009.57 1009.18 1008.86 1008.63 1008.52 1008.54 1008.68 1008.94 1009.29 1009.70 1010.15 1010.58 1010.97 1011.28 1011.48 1011.59 1011.60 1011.54 1011.44 1011.34 1011.27 1011.26 1011.33 1011.46 1011.65 1011.88 1012.14 1012.39 1012.65
1013.39 1013.28 1013.12 1012.93 1012.74 1012.53 1012.32 1012.09 1011.83 1011.51 1011.15 1010.73 1010.29 1009.83 1009.39 1008.99 1008.67 1008.45 1008.34 1008.35 1008.47 1008.70 1009.02 1009.40 1009.81 1010.22 1010.60 1010.91 1011.14 1011.27 1011.32 1011.29 1011.22 1011.13 1011.05 1011.01 1011.02 1011.09 1011.22 1011.39 1011.58 1011.79 1012.00
1013.36 1013.19 1012.99 1012.78 1012.58 1012.38 1012.18 1011.96 1011.72 1011.42 1011.07 1010.67 1010.24 1009.79 1009.37 1009.00 1008.70 1008.50 1008.40 1008.40 1008.50 1008.68 1008.94 1009.25 1009.59 1009.93 1010.26 1010.55 1010.78 1010.94 1011.03 1011.06 1011.03 1010.98 1010.92 1010.88 1010.87 1010.90 1010.97 1011.07 1011.19 1011.33 1011.48
1013.16 1012.98 1012.78 1012.58 1012.39 1012.23 1012.06 1011.88 1011.67 1011.41 1011.09 1010.72 1010.32 1009.91 1009.53 1009.20 1008.94 1008.77 1008.68 1008.68 1008.75 1008.87 1009.05 1009.25 1009.49 1009.73 1009.98 1010.22 1010.43 1010.60 1010.73 1010.82 1010.86 1010.87 1010.86 1010.85 1010.84 1010.84 1010.86 1010.90 1010.95 1011.02 1011.10
1012.87 1012.70 1012.52 1012.36 1012.21 1012.09 1011.97 1011.85 1011.68 1011.46 1011.18 1010.85 1010.50 1010.14 1009.81 1009.54 1009.33 1009.20 1009.13 1009.12 1009.16 1009.22 1009.30 1009.39 1009.50 1009.63 1009.78 1009.94 1010.11 1010.28 1010.44 1010.58 1010.69 1010.76 1010.82 1010.84 1010.85 1010.85 1010.84 1010.84 1010.83 1010.83 1010.86
1012.55 1012.40 1012.26 1012.13 1012.04 1011.97 1011.90 1011.82 1011.70 1011.52 1011.29 1011.00 1010.70 1010.40 1010.13 1009.92 1009.77 1009.68 1009.64 1009.63 1009.63 1009.63 1009.62 1009.61 1009.60 1009.61 1009.65 1009.73 1009.84 1009.99 1010.16 1010.33 1010.49 1010.63 1010.74 1010.81 1010.84 1010.85 1010.83 1010.79 1010.75 1010.72 1010.71
1012.26 1012.13 1012.01 1011.92 1011.86 1011.83 1011.80 1011.75 1011.66 1011.52 1011.33 1011.09 1010.83 1010.58 1010.37 1010.22 1010.12 1010.08 1010.07 1010.07 1010.06 1010.02 1009.95 1009.85 1009.74 1009.65 1009.59 1009.59 1009.65 1009.76 1009.92 1010.10 1010.29 1010.46 1010.60 1010.70 1010.75 1010.77 1010.75 1010.71 1010.67 1010.64 1010.63
Thickness
5849 5844 5829 5823 5819 5816 5813 5811 5809 5806 5802 5798 5795 5791 5788 5784 5781 5779 5776 5774 5772 5770 5769 5767 5765 5764 5762 5761 5759 5757 5756 5755 5754 5753 5752 5750 5749 5748 5748 5747 5748 5748 5744
5852 5842 5828 5823 5818 5814 5812 5809 5807 5803 5800 5797 5793 5789 5786 5783 5780 5777 5775 5773 5771 5769 5767 5766 5764 5763 5761 5760 5758 5756 5755 5754 5753 5752 5751 5750 5748 5747 5747 5747 5748 5748 5743
5850 5839 5827 5821 5817 5813 5810 5807 5804 5801 5798 5794 5791 5787 5784 5781 5779 5776 5774 5771 5769 5768 5766 5764 5763 5761 5759 5758 5757 5755 5754 5752 5752 5751 5752 5755 5750 5746 5745 5745 5745 5743 5742
5846 5837 5827 5819 5814 5811 5808 5805 5801 5798 5795 5792 5788 5785 5782 5780 5777 5774 5772 5770 5768 5766 5764 5762 5761 5759 5757 5756 5755 5753 5752 5751 5751 5751 5756 5756 5753 5746 5744 5743 5742 5741 5740
5842 5835 5825 5816 5812 5808 5805 5802 5799 5796 5792 5789 5786 5783 5780 5778 5775 5773 5771 5768 5766 5764 5762 5761 5759 5757 5756 5754 5753 5751 5750 5750 5750 5752 5756 5754 5752 5745 5743 5742 5741 5740 5739
5838 5832 5822 5813 5808 5805 5801 5798 5795 5792 5789 5786 5783 5780 5778 5776 5773 5771 5769 5767 5765 5763 5761 5759 5757 5755 5754 5752 5750 5749 5749 5748 5749 5756 5754 5753 5751 5744 5742 5741 5740 5739 5738
5836 5830 5819 5810 5805 5801 5798 5795 5792 5789 5786 5783 5780 5777 5775 5773 5770 5768 5767 5765 5763 5761 5759 5757 5755 5753 5751 5750 5748 5748 5747 5747 5751 5755 5753 5752 5749 5744 5742 5741 5739 5738 5737
5834 5829 5817 5806 5802 5798 5794 5791 5788 5785 5782 5779 5777 5774 5772 5770 5768 5766 5764 5762 5760 5758 5756 5754 5753 5751 5749 5748 5747 5746 5746 5745 5750 5754 5753 5752 5747 5743 5741 5740 5739 5738 5737
5833 5826 5816 5807 5800 5795 5791 5787 5784 5782 5779 5776 5773 5771 5769 5767 5765 5763 5761 5760 5758 5756 5754 5752 5750 5749 5748 5746 5745 5744 5744 5744 5748 5754 5754 5752 5747 5743 5741 5740 5739 5738 5737
5827 5822 5816 5809 5802 5796 5791 5785 5781 5778 5775 5772 5770 5767 5765 5763 5761 5759 5758 5757 5755 5753 5752 5750 5748 5747 5746 5745 5744 5743 5742 5742 5747 5754 5753 5752 5746 5743 5741 5740 5739 5738 5737
5819 5817 5814 5808 5802 5797 5793 5787 5780 5775 5772 5770 5767 5765 5762 5763 5763 5760 5758 5756 5753 5751 5750 5748 5747 5746 5744 5744 5743 5741 5741 5745 5751 5754 5754 5751 5746 5742 5741 5740 5740 5739 5738
5810 5809 5808 5805 5799 5795 5792 5785 5781 5777 5774 5770 5769 5765 5762 5762 5761 5761 5758 5753 5751 5749 5748 5747 5746 5744 5744 5747 5745 5742 5744 5747 5751 5753 5753 5748 5745 5742 5741 5740 5739 5739 5738
5807 5804 5803 5799 5795 5792 5788 5784 5780 5777 5773 5769 5766 5763 5761 5759 5758 5756 5756 5753 5750 5748 5748 5749 5747 5746 5748 5748 5747 5746 5747 5751 5751 5752 5752 5747 5743 5741 5740 5740 5739 5738 5737
5804 5801 5799 5795 5789 5785 5783 5780 5776 5774 5771 5768 5764 5759 5758 5756 5755 5754 5752 5753 5751 5750 5749 5748 5747 5748 5747 5746 5745 5745 5747 5748 5750 5750 5749 5745 5742 5740 5740 5740 5739 5738 5737
5797 5795 5793 5789 5785 5780 5776 5773 5771 5767 5765 5762 5757 5755 5752 5751 5750 5750 5748 5747 5747 5747 5746 5745 5745 5746 5745 5744 5744 5744 5745 5746 5747 5747 5747 5743 5741 5739 5739 5739 5739 5738 5738
5791 5789 5786 5782 5778 5773 5770 5766 5763 5760 5756 5754 5752 5749 5746 5745 5744 5743 5742 5742 5743 5742 5742 5741 5743 5742 5742 5742 5742 5742 5743 5744 5744 5744 5745 5743 5740 5740 5739 5739 5739 5739 5738
5784 5781 5777 5774 5770 5765 5762 5759 5756 5751 5748 5746 5743 5740 5737 5736 5736 5736 5737 5737 5738 5737 5736 5736 5738 5738 5739 5740 5740 5740 5741 5742 5743 5742 5743 5743 5743 5741 5740 5739 5739 5739 5738
5774 5770 5767 5765 5760 5756 5752 5749 5748 5743 5739 5737 5734 5733 5731 5728 5728 5728 5730 5732 5732 5731 5732 5732 5733 5733 5734 5735 5736 5738 5740 5740 5742 5742 5742 5742 5743 5745 5742 5740 5739 5738 5737
5763 5759 5756 5753 5749 5746 5743 5741 5738 5735 5731 5729 5727 5725 5724 5721 5721 5721 5722 5725 5727 5728 5728 5729 5732 5730 5730 5731 5733 5734 5737 5739 5740 5741 5742 5743 5742 5742 5743 5741 5739 5738 5737
5753 5750 5746 5743 5740 5737 5735 5732 5729 5726 5724 5722 5720 5718 5717 5716 5715 5716 5717 5719 5720 5722 5722 5724 5724 5725 5726 5726 5730 5733 5735 5738 5739 5740 5740 5742 5742 5742 5743 5744 5741 5740 5738
5742 5739 5736 5732 5730 5728 5726 5723 5721 5718 5716 5715 5715 5713 5712 5711 5711 5712 5713 5714 5714 5715 5716 5718 5719 5719 5720 5722 5722 5724 5730 5734 5736 5736 5738 5741 5744 5743 5742 5742 5741 5742 5741
5731 5728 5725 5724 5722 5720 5718 5716 5714 5711 5711 5710 5709 5707 5706 5706 5706 5709 5707 5708 5709 5708 5709 5710 5711 5714 5716 5717 5716 5716 5718 5725 5727 5735 5735 5736 5739 5741 5741 5741 5740 5739 5739
5722 5719 5718 5714 5713 5711 5709 5710 5708 5705 5704 5703 5700 5699 5699 5699 5700 5700 5700 5702 5702 5703 5704 5705 5707 5705 5707 5711 5714 5713 5713 5718 5725 5728 5730 5732 5733 5736 5738 5739 5737 5737 5737
5715 5713 5709 5706 5703 5702 5701 5700 5698 5695 5694 5693 5692 5691 5690 5691 5692 5691 5692 5693 5694 5696 5697 5699 5702 5702 5701 5703 5707 5709 5712 5716 5714 5719 5722 5727 5728 5728 5732 5734 5736 5736 5735
5709 5706 5702 5698 5695 5693 5691 5690 5688 5687 5686 5686 5684 5682 5681 5682 5682 5682 5683 5684 5685 5687 5689 5691 5693 5694 5697 5698 5702 5704 5704 5705 5707 5709 5714 5718 5722 5726 5729 5729 5732 5734 5734
5703 5700 5696 5691 5687 5684 5681 5679 5677 5675 5673 5672 5671 5671 5671 5672 5672 5672 5673 5673 5675 5677 5679 5680 5683 5686 5689 5692 5695 5699 5699 5700 5702 5705 5707 5709 5714 5721 5723 5726 5728 5730 5731